Weather Roundup
Issued by NWS Chicago, IL

Home | Current Version | Previous Version | Graphics & Text | Print | Product List | Glossary On
Versions: 1 2 3 4 5 6 7 8 9 10 11 12 13 14 15 16 17 18 19 20 21 22 23 24 25 26 27 28 29 30 31 32 33 34 35 36 37 38 39 40 41 42 43 44 45 46 47 48 49 50
302
NZUS59 KLOT 301109
HRRLOT

CHICAGO AREA WEATHER ROUNDUP
NATIONAL WEATHER SERVICE CHICAGO/ROMEOVILLE IL
600 AM CDT SAT JUL 30 2016

NOTE: "FAIR" INDICATES FEW OR NO CLOUDS BELOW 12,000 FEET WITH NO
SIGNIFICANT WEATHER AND/OR OBSTRUCTIONS TO VISIBILITY.

* THESE STATIONS ARE NOT UNDER NWS QUALITY CONTROL. THEY ALSO MAY NOT
  REPORT WEATHER SUCH AS PRECIPITATION OR FOG.

ILZ005-006-012>014-019>023-301200-
NORTHEAST ILLINOIS

CITY           SKY/WX    TMP DP  RH WIND       PRES   REMARKS
OHARE          CLOUDY    71  65  81 NE10      29.95R
MIDWAY         CLOUDY    73  67  81 NE14      29.94R
AURORA         CLOUDY    68  66  93 N6        29.95R
LANSING*       CLOUDY    68  66  94 NE3       29.94R
JOLIET*        CLOUDY    71  69  93 CALM      29.94R
WAUKEGAN       CLOUDY    68  64  87 E9        29.96R
DUPAGE AIRPORT CLOUDY    68  65  90 NE6       29.95R
WHEELING       CLOUDY    70  64  81 E9        29.97R
KANKAKEE*      FOG       67  66  97 CALM      29.94R VSB 1/2
MORRIS*        CLOUDY    67  66  96 CALM      29.93R FOG
LEWIS AIRPORT* CLOUDY    69  65  90 NE3       29.95R
NORTHERLY ISL    N/A     69  66  90 NE17        N/A
$$

WIZ051-052-058>065-066-070>072-301200-
SOUTHEAST WISCONSIN

CITY           SKY/WX    TMP DP  RH WIND       PRES   REMARKS
MILWAUKEE      CLOUDY    68  64  87 NE7       29.99R
KENOSHA*       MOCLDY    67  63  87 E10       29.98R
RACINE*        CLOUDY    69  63  81 E8        29.99R
BURLINGTON     CLOUDY    64  63  95 NE7       29.98R
WAUKESHA       MOCLDY    63  57  82 NE6       30.00S
WEST BEND      MOCLDY    61  57  88 CALM      30.01R
$$

INZ001>003-010>013-019-020-301200-
NORTHWEST INDIANA

CITY           SKY/WX    TMP DP  RH WIND       PRES   REMARKS
GARY*          MOCLDY    66  66 100 CALM      29.94R FOG
MICHIGAN CITY* NOT AVBL
RENSSELAER*    NOT AVBL
VALPARAISO     CLOUDY    68  67  96 E3        29.95R
$$

LMZ740>746-301200-
SOUTHERN LAKE MICHIGAN

STATION/POSITION TIME  SKY/WX   TEMP WIND        PRES    VSBY
                                AIR  DIR/SP/G
                 (UTC)          (F)  (DEG/KT/KT) (MB)    (MI)
HARRISON CRIB    1000            73   40/ 17/ 20   N/A
BURNHAM HARBOR   1100            69   40/ 13/ 18   N/A
CALUMET HARBOR   1000            72   20/  3/  4 1012.8R
BURNS HARBOR     1006            69  160/  2/ 10 1013.9R
MICHIGAN CITY    1000            68   80/  4/  5   N/A
$$

ABBREVIATIONS USED IN REMARKS
   TC - TEMPERATURE IN CELSIUS
  WCI - WIND CHILL INDEX
   HX - HEAT INDEX
  VSB - VISIBILITY
$$




USA.gov is the U.S. government's official web portal to all federal, state and local government web resources and services.